KAITUO 1B
1 40912U 15049P   18014.15570332  .00001090  00000-0  56236-4 0  9991
2 40912  97.4518  23.7038 0014990 181.4992 243.9865 15.18369554128298
TIANWANG 1C (TW-1C)
1 40926U 15051B   18014.53914003  .00006080  00000-0  12355-3 0  9995
2 40926  97.2048  57.6915 0012458 116.0350  22.1600 15.46607334129543
TIANWANG 1B (TW-1B)
1 40927U 15051C   18014.57317245  .00005871  00000-0  12424-3 0  9999
2 40927  97.2143  57.6431 0012151 125.0901  29.3583 15.45436829129474
TIANWANG 1A (TW-1A)
1 40928U 15051D   18013.83893309 +.00002707 +00000-0 +74939-4 0  9993
2 40928 097.2045 050.8081 0012755 150.8386 296.6625 15.37776064129054
LAPAN A2
1 40931U 15052B   18013.85321173 +.00000575 +00000-0 -91148-5 0  9999
2 40931 005.9966 170.6439 0013730 347.4805 012.5303 14.76560599124158
LQSAT
1 40958U 15057A   18014.44297921 -.00000002  00000-0  73648-5 0  9992
2 40958  97.9580  90.8411 0019516 108.0334 252.3003 14.73011373122213
CHUBUSAT 2
1 41338U 16012B   18011.99469837  .00000304  00000-0  17091-4 0  9994
2 41338  31.0020 225.9519 0013980 326.0747  33.8993 14.99902897104367
CHUBUSAT 3
1 41339U 16012C   18014.55679384  .00000259  00000-0  13465-4 0  9990
2 41339  31.0085 208.4957 0013714 358.5106   1.5485 15.00096338104731
OUFTI-1
1 41458U 16025C   18014.06215888  .00001417  00000-0  79067-4 0  9994
2 41458  98.1595  68.5532 0169710 304.6780  53.8555 15.04152366 94267
E-STAR-2
1 41459U 16025D   18013.71087797  .00000351  00000-0  23408-4 0  9996
2 41459  98.1569  68.0787 0170934 306.3082  52.2443 15.03912162 94200
AAUSAT 4
1 41460U 16025E   18014.42481729  .00002119  00000-0  11514-3 0  9998
2 41460  98.1518  69.1163 0162909 300.7933  57.7343 15.05158783 94350
NUSAT 1
1 41557U 16033B   18014.21874587  .00001291  00000-0  50076-4 0  9996
2 41557  97.4482  98.6716 0013472 348.7549  11.3387 15.27910499 90641
BEESAT 4
1 41619U 16040W   18014.41135132  .00001559  00000-0  71943-4 0  9994
2 41619  97.4368  79.5589 0013007  54.5836 305.6612 15.21660059 74701
PRATHAM
1 41783U 16059A   18014.17407837  .00000073  00000-0  23672-4 0  9999
2 41783  98.1404  78.0520 0032917 217.3237 142.5677 14.62894117 69448
ALSAT 1N
1 41789U 16059G   18014.12393260  .00000053  00000-0  19237-4 0  9994
2 41789  98.1408  78.9160 0027585 209.8243 150.1400 14.64118638 69476
NAYIF 1
1 42017U 17008BX  18013.94825071 +.00001568 +00000-0 +67823-4 0  9999
2 42017 097.4696 079.8042 0006179 188.2276 171.8861 15.23940954050575
LILACSAT-1
1 42725U 98067ME  18014.17857921  .00016034  00000-0  18038-3 0  9991
2 42725  51.6384  59.4923 0005766  17.1598 342.9590 15.62740453 36396
MAX VALIER SAT
1 42778U 17036P   18014.38136105  .00001089  00000-0  52244-4 0  9995
2 42778  97.4258  76.4982 0011366 245.0215 114.9840 15.20975292 31123
